Regional Weather Roundup
Issued by NWS Grand Forks, ND

Home | Current Version | Previous Version | Graphics & Text | Print | Product List | Glossary On
Versions: 1 2 3 4 5 6 7 8 9 10 11 12 13 14 15 16 17 18 19 20 21 22 23 24 25 26 27 28 29 30 31 32 33 34 35 36 37 38 39 40 41 42 43 44 45 46 47 48 49 50
000
ASUS43 KFGF 190410
RWRFGF
PRAIRIE TO PINES  WEATHER ROUNDUP
NATIONAL WEATHER SERVICE EASTERN NORTH DAKOTA/GRAND FORKS ND
1000 PM CST WED JAN 18 2017

 **SATELLITE DATA USED TO AUGMENT SKY COVER AT AUTOMATED STATIONS**
 *****  WEATHER ACROSS EASTERN NORTH DAKOTA  *****

CITY           SKY/WX    TMP DP  RH WIND       PRES   REMARKS
GRAND FORKS    FAIR      27  20  75 S15       29.64F WCI  15
GRAND FRKS AFB FAIR      27  22  82 S15       29.62F WCI  15
DEVILS LAKE    FAIR      33  24  69 S8        29.58F
FARGO          FAIR      31  25  78 S12       29.70F WCI  22
WAHPETON ARPT  FAIR      28  23  80 SE7       29.73S WCI  21
$$

 ***** WEATHER ACROSS CENTRAL AND WESTERN NORTH DAKOTA  *****

CITY           SKY/WX    TMP DP  RH WIND       PRES   REMARKS
BISMARCK       FAIR      22  17  81 E5        29.61F WCI  16
MINOT          FAIR      38  27  64 SW18      29.50F
JAMESTOWN      FAIR      27  21  78 S7        29.62F WCI  19
MINOT AFB      NOT AVBL
GARRISON         N/A     23  20  88 S5        29.55F WCI  17
WILLISTON      FAIR      26  22  84 S5        29.52F WCI  20
DICKINSON      FAIR      30  22  72 S6        29.53F WCI  24
HETTINGER      FAIR      28  20  71 CALM      29.58F
$$

 *****  OTHER AIRPORT OBSERVATIONS IN OUR AREA  *****

CITY           SKY/WX    TMP DP  RH WIND       PRES   REMARKS
WALHALLA       NOT AVBL
GRAFTON AIRPOR FAIR      25  23  93 S16       29.63S WCI  12
VALLEY CITY AR MIX PCPN  25  25 100 S13       29.67S WCI  13
CANDO          NOT AVBL
CAVALIER APRT    N/A     28  25  86 S15       29.57F WCI  17
GWINNER        FAIR      27  23  86 S7        29.70F WCI  19
SHEYENNE NWR     N/A     25  21  83 S2        29.95S
ROLLA            N/A    N/A N/A N/A MISG        N/A
 ***** THE ABOVE OBSERVATIONS ARE NON NWS ARE NOT QUALITY
       CONTROLLED AND MAY MIS-REPORT RAIN FOR SNOW...
$$

  *****  WEATHER ACROSS NORTHERN MINNESOTA  *****

CITY           SKY/WX    TMP DP  RH WIND       PRES   REMARKS
FLAG ISLAND    FAIR      19  16  86 S10       29.63F WCI   8
WARROAD        FAIR      30  25  80 S6        29.64F WCI  24
ROSEAU         FAIR      30  25  80 S14       29.63F WCI  20
HALLOCK        FAIR      27  23  86 S17       29.61S WCI  14
THF RVR FALLS  FAIR      28  22  78 S14       29.66F WCI  17
BAUDETTE       FAIR      31  23  72 S3        29.66F
WASKISH        FAIR      34  27  75 S5        29.70F
CROOKSTON      FAIR      30  25  80 S18       29.67F WCI  18
GREENBUSH NDAW   N/A     28  25  86 S9          N/A  WCI  20
$$
  *****  WEATHER ACROSS CENTRAL AND WEST MINNESOTA  *****

CITY           SKY/WX    TMP DP  RH WIND       PRES   REMARKS
FOSSTON        FAIR      28  21  74 S12       29.68F WCI  18
BEMIDJI        FAIR      30  23  75 SE7       29.71F WCI  23
PARK RAPIDS    FAIR      27  20  75 SE8       29.72F WCI  19
ELBOW LAKE     FAIR      29  27  92 E8        29.74S WCI  21
WADENA         FAIR      25  23  93 SE5       29.73F WCI  19
DETROIT LAKES  FAIR      30  25  80 S8        29.73S WCI  23
MOORHEAD       FAIR      28  23  80 S13       29.71F WCI  18
FERGUS FALLS   FAIR      30  27  86 SE10      29.77F WCI  21
MORRIS MN      FAIR      27  27 100 SE7       29.74S WCI  19
STAPLES        FAIR      27  25  93 SE3       29.75F
$$
  *****  WEATHER ELSEWHERE ACROSS MINNESOTA  *****

CITY           SKY/WX    TMP DP  RH WIND       PRES   REMARKS
DULUTH         FAIR      34  27  75 SW10      29.78F
INTRNTL FALLS  FAIR      32  23  69 S5        29.69F
ELY            FAIR      28  23  80 CALM      29.76S
CLOQUET        FAIR      32  27  80 S3        29.79S
WHEATON        FAIR      34  30  86 SE8       29.75S
BRAINERD       FAIR      28  27  96 S7        29.77F FOG     WCI  21
HIBBING        FAIR      23  22  96 SE3       29.76F
ALEXANDRIA     FAIR      27  26  96 S6        29.76S WCI  20
SAINT CLOUD    FAIR      28  28 100 SE6       29.80S FOG     WCI  22
MINNEAPOLIS    FAIR      32  29  88 SE6       29.84S
$$

  *****  WEATHER ACROSS SOUTH DAKOTA  *****

CITY           SKY/WX    TMP DP  RH WIND       PRES   REMARKS
SIOUX FALLS    FAIR      38  37  97 S12       29.76F
BROOKINGS      FAIR      34  33  96 S8        29.72F
WATERTOWN      FOG       28  27  96 S9        29.70F VSB 1/2 WCI  19
HURON          FAIR      35  33  92 S14       29.68F
SISSETON         N/A     27  24  89 SE5       29.71S WCI  22
ABERDEEN       FAIR      17  14  88 N3        29.69F FOG
MITCHELL       FAIR      35  34  96 S9        29.71F
PIERRE         FAIR      21  17  84 CALM      29.62F
MOBRIDGE       FAIR      22  16  78 SE7       29.61F WCI  13
RAPID CITY     FAIR      31  23  72 N13       29.57F WCI  21
$$

  *****  SOME WEATHER IN NEARBY STATES *****

CITY           SKY/WX    TMP DP  RH WIND       PRES   REMARKS
GLASGOW MT     FAIR      30  24  78 S10       29.50S WCI  21
GREAT FALLS MT FAIR      39  26  59 SW15      29.50F
CHEYENNE WY    FAIR      29  17  61 W6        29.71F WCI  23
SCOTTSBLUFF NE FAIR      31  23  72 CALM      29.67F
OMAHA NE       FAIR      40  34  79 S12       29.89S
DES MOINES IA  FOG       35  34  96 S10       29.96S VSB 1/2
DAVENPORT IA   FAIR      32  31  96 S8        30.02F FOG     WCI  25
CHICAGO IL     FAIR      34  31  88 SW3       30.04F
EAU CLAIRE WI  FOG       27  26  96 CALM      29.88F VSB 1
LA CROSSE WI   CLOUDY    36  32  85 S12       29.93F
$$

  *****  SOME NATIONAL WEATHER *****

CITY           SKY/WX    TMP DP  RH WIND       PRES   REMARKS
LA GUARDIA NY  CLOUDY    42  36  79 N7        30.02S
RALEIGH NC     FAIR      47  35  63 W3        30.06S
ATLANTA GA     MOCLDY    59  52  77 W5        30.10S
NEW ORLEANS LA CLOUDY    71  70  96 S8        30.04S
OKLAHOMA CITY  MOCLDY    46  44  93 S7        29.93F
ALBUQUERQUE NM FAIR      41  31  67 N8        30.00S
SALT LAKE CITY CLOUDY    25  21  85 CALM      29.91F FOG
LOS ANGELES CA LGT RAIN  54  50  86 E10       30.08F
BOISE ID       LGT RAIN  33  31  92 SE20      29.72F FOG     WCI  21
SEATTLE WA     LGT RAIN  46  41  82 E7        29.25S
$$

*** WEATHER ACROSS MANITOBA...SASKATCHEWAN AND ONTARIO ***
                ***ONTARIO***

CITY           SKY/WX    TMP DP  RH WIND       PRES   REMARKS
GERALDTON      CLEAR     14  12  92 SE2       29.78F
THUNDER BAY    CLEAR     21  21 100 W5        29.81R WCI  15
SIOUX LOOKOUT  MOCLDY    27  23  86 CALM      29.70S
TORONTO        CLOUDY    37  36  93 W9        29.97S
BIG TROUT LK   FLURRIES  30  28  93 S9        29.72R WCI  22
PICKLE LAKE    NOT AVBL
DRYDEN         MOCLDY    28  25  86 S9        29.68S WCI  20
KENORA         PTCLDY    32  25  74 S12       29.62F WCI  23
$$
                *** MANITOBA***

CITY           SKY/WX    TMP DP  RH WIND       PRES   REMARKS
BRANDON        PTCLDY    25  21  86 W9        29.48F WCI  15
DAUPHIN        MOCLDY    39  28  65 SW14      29.37F
ISLAND LAKE    MOCLDY    30  27  86 SE14      29.52F WCI  20
PILOT MOUND      N/A     28  23  80 S15         N/A  WCI  17
THE PAS        CLEAR     28  25  86 SE9       29.27F WCI  20
THOMPSON       CLOUDY    32  30  93 E6        29.43F
WINNIPEG       MOCLDY    28  23  80 S24G31    29.53F WCI  14
LYNN LAKE      CLOUDY    32  32 100 SE12G18   29.30S WCI  23
CHURCHILL      FLURRIES   9   7  92 SE9       29.68F WCI  -5
GILLAM         FLURRIES  23  21  93 E6        29.59F WCI  16
$$
                ***SASKATCHEWAN***

CITY           SKY/WX    TMP DP  RH WIND       PRES   REMARKS
ESTEVAN        CLEAR     30  25  80 SW15      29.47F WCI  19
KINDERSLEY     PTCLDY    36  30  80 SW14      29.28F
LLOYDMINSTER   PTCLDY    34  28  80 S9        29.20S
PRINCE ALBERT  PTCLDY    28  27  93 W5        29.24R WCI  23
REGINA         PTCLDY    32  28  86 S9        29.41R WCI  24
YORKTON        PTCLDY    34  28  80 SW12      29.35F
N. BATTLEFORD  CLEAR     36  28  75 W6        29.25F
LA RONGE       CLEAR     25  23  93 S2        29.17S
SASKATOON      CLEAR     36  30  80 SW12      29.29R
SWIFT CURRENT  CLEAR     36  32  87 SW13      29.36F
$$
NOTE: THESE ARE AUTOMATED STATIONS WITH LIMITED QUALITY CONTROL
      "FAIR" INDICATES FEW OR NO CLOUDS BELOW 12,000 FEET WITH NO
      SIGNIFICANT WEATHER AND/OR OBSTRUCTIONS TO VISIBILITY.
      SKY/WX - SKY CONDITION AND SIGNIFICANT WEATHER.
      TMP - AIR TEMPERATURE.    DP   - DEWPOINT TEMPERATURE.
      RH  - RELATIVE HUMIDITY.  PRES - PRESSURE.
      HX  - HEAT INDEX.         WCI  - WIND CHILL INDEX.
$




USA.gov is the U.S. government's official web portal to all federal, state and local government web resources and services.